CDT,Max TemperatureF,Mean TemperatureF,Min TemperatureF,Max Dew PointF,MeanDew PointF,Min DewpointF,Max Humidity, Mean Humidity, Min Humidity, Max Sea Level PressureIn, Mean Sea Level PressureIn, Min Sea Level PressureIn, Max VisibilityMiles, Mean VisibilityMiles, Min VisibilityMiles, Max Wind SpeedMPH, Mean Wind SpeedMPH, Max Gust SpeedMPH,PrecipitationIn, CloudCover, Events, WindDirDegrees
2013-3-1,28,27,25,21,20,16,81,73,66,30.38,30.29,30.24,10,7,2,15,11,21,0.00,8,Snow,341
2013-3-2,35,28,21,23,18,14,75,68,54,30.40,30.31,30.15,10,10,9,9,6,,0.00,6,,88
2013-3-3,44,35,26,29,25,20,81,68,53,30.15,29.93,29.75,10,10,8,16,10,22,0.00,1,,138
2013-3-4,45,38,32,32,29,25,85,70,58,30.02,29.79,29.68,10,10,6,15,9,24,0.00,4,Rain,43
2013-3-5,34,29,24,27,18,14,75,61,52,30.41,30.24,30.06,10,10,10,29,17,39,0.00,5,,319
2013-3-6,39,31,23,21,18,15,78,64,45,30.47,30.39,30.29,10,10,10,14,8,18,0.00,3,,66
2013-3-7,52,38,23,27,23,18,81,64,35,30.31,30.22,30.13,10,10,10,18,10,23,0.00,0,,122
2013-3-8,59,44,28,38,32,24,82,63,41,30.21,30.09,29.92,10,10,8,22,10,29,0.00,3,,130
2013-3-9,54,50,45,52,46,37,94,86,68,29.91,29.71,29.56,10,7,3,20,12,29,0.25,8,Rain,158
2013-3-10,43,34,24,40,27,19,100,87,80,29.94,29.81,29.62,10,7,2,25,17,36,0.00,8,Rain-Snow,337
2013-3-11,36,28,21,21,19,16,85,72,50,30.04,29.95,29.88,10,10,5,21,14,29,0.00,5,Snow,304
2013-3-12,42,32,24,25,21,17,85,66,50,30.37,30.21,30.05,10,10,10,22,10,36,0.00,2,,310
2013-3-13,44,32,19,22,18,15,85,65,34,30.51,30.41,30.30,10,10,10,10,6,,0.00,1,,222
2013-3-14,71,50,30,38,31,22,76,54,30,30.28,30.13,30.06,10,10,10,12,8,,0.00,0,,269
2013-3-15,78,55,32,42,36,29,92,59,22,30.07,29.81,29.65,10,10,7,16,5,,0.00,0,,330
2013-3-16,42,36,30,37,30,23,89,77,65,30.17,30.02,29.83,10,8,4,23,15,30,0.00,8,,11
2013-3-17,46,36,27,30,25,21,82,69,50,30.15,29.96,29.80,10,10,10,18,12,25,0.00,6,,96
2013-3-18,48,38,27,34,27,13,100,73,31,30.09,29.86,29.73,10,7,2,23,8,36,0.03,5,Rain,288
2013-3-19,46,37,28,34,24,13,82,60,36,30.30,30.18,30.09,10,10,10,14,6,18,0.00,4,Rain,269
2013-3-20,39,28,18,20,8,4,71,47,26,30.44,30.32,30.15,10,10,10,21,11,29,0.00,1,,341
2013-3-21,36,28,19,20,14,9,71,56,39,30.14,30.03,29.93,10,10,10,16,7,,0.00,6,,111
2013-3-22,37,32,28,25,21,16,86,65,52,30.05,30.00,29.95,10,9,2,10,6,,0.00,8,Snow,79
2013-3-23,42,36,30,29,25,21,93,77,47,30.10,30.02,29.96,10,5,1,18,10,26,0.00,8,Snow,26
2013-3-24,30,26,21,25,22,15,93,80,64,30.12,30.02,29.97,10,5,1,24,17,34,0.01,8,Snow,343
2013-3-25,30,26,23,25,21,18,88,77,66,30.38,30.22,30.08,10,8,2,21,14,30,0.00,8,Snow,320
2013-3-26,41,30,18,22,19,13,85,67,45,30.43,30.36,30.30,10,10,10,9,7,,0.00,1,,281
2013-3-27,54,40,25,31,26,19,81,66,38,30.32,30.26,30.19,10,10,10,17,8,25,0.00,4,,118
2013-3-28,63,46,28,35,30,24,85,59,30,30.27,30.21,30.13,10,10,10,9,4,,0.00,1,,91
2013-3-29,70,52,36,38,33,29,89,54,23,30.24,30.15,30.05,10,9,5,16,7,22,0.00,0,,115
2013-3-30,70,58,46,58,45,35,100,73,42,30.09,29.95,29.86,10,8,1,14,7,20,0.38,6,Rain-Thunderstorm,349
2013-3-31,61,52,43,42,34,24,89,55,27,30.09,29.97,29.94,10,10,10,18,9,30,0.00,3,,327